Location: Carthage
(33.8834°N, 106.6595°W)
Time: 12:51:16
(UTC+00:00)

Cosmos 1934 Rocket - Pass Details

Date: 13 February 2026
Orbit: 938 x 997 km, 83.0° (Epoch: 11 March)

Event Time Altitude Azimuth Distance (km) Brightness Sun altitude
Rises 12:21:56 0° 205° (SSW) 3,591 6.8 -19.5°
Reaches altitude 10° 12:24:33 10° 212° (SSW) 2,655 6.0 -18.9°
Maximum altitude 12:30:12 40° 281° (W) 1,374 4.3 -17.7°
Drops below altitude 10° 12:35:57 10° 350° (N) 2,703 6.2 -16.6°
Sets 12:38:40 0° 358° (N) 3,662 6.9 -16.0°
